owner,sensor,date,latitude,longitude,vertical_datum,sea_water_practical_salinity,qcFlag 
SCCF RECON,ioos:station:SCCF:53:1,2016-09-01T00:00:00Z,26.6493,-81.8810,2.5,1.33,1111122 
SCCF RECON,ioos:station:SCCF:53:1,2016-09-01T01:00:00Z,26.6493,-81.8810,2.476,1.18,1111122 
SCCF RECON,ioos:station:SCCF:53:1,2016-09-01T02:00:00Z,26.6493,-81.8810,2.458,1.23,1111122 
SCCF RECON,ioos:station:SCCF:53:1,2016-09-01T03:00:00Z,26.6493,-81.8810,2.446,1.12,1111122 
SCCF RECON,ioos:station:SCCF:53:1,2016-09-01T04:00:00Z,26.6493,-81.8810,2.5,1.09,1111122 
SCCF RECON,ioos:station:SCCF:53:1,2016-09-01T05:00:00Z,26.6493,-81.8810,2.51,1.11,1111122 
SCCF RECON,ioos:station:SCCF:53:1,2016-09-01T06:00:00Z,26.6493,-81.8810,2.53,1.79,1111122 
SCCF RECON,ioos:station:SCCF:53:1,2016-09-01T07:00:00Z,26.6493,-81.8810,2.57,1.74,1111122 
SCCF RECON,ioos:station:SCCF:53:1,2016-09-01T08:00:00Z,26.6493,-81.8810,2.59,1.83,1111122 
SCCF RECON,ioos:station:SCCF:53:1,2016-09-01T09:00:00Z,26.6493,-81.8810,2.59,1.81,1111122 
SCCF RECON,ioos:station:SCCF:53:1,2016-09-01T10:00:00Z,26.6493,-81.8810,2.56,1.69,1111122 
SCCF RECON,ioos:station:SCCF:53:1,2016-09-01T11:00:00Z,26.6493,-81.8810,2.5,1.26,1111122 
SCCF RECON,ioos:station:SCCF:53:1,2016-09-01T12:00:00Z,26.6493,-81.8810,2.45,0.95,1111122 
SCCF RECON,ioos:station:SCCF:53:1,2016-09-01T13:00:00Z,26.6493,-81.8810,2.417,0.8,1111122 
SCCF RECON,ioos:station:SCCF:53:1,2016-09-01T14:00:00Z,26.6493,-81.8810,2.391,0.76,1111122 
SCCF RECON,ioos:station:SCCF:53:1,2016-09-01T15:00:00Z,26.6493,-81.8810,2.451,0.71,1111122 
SCCF RECON,ioos:station:SCCF:53:1,2016-09-01T16:00:00Z,26.6493,-81.8810,2.555,0.87,1111122 
SCCF RECON,ioos:station:SCCF:53:1,2016-09-01T17:00:00Z,26.6493,-81.8810,2.631,0.9,1111122 
SCCF RECON,ioos:station:SCCF:53:1,2016-09-01T18:00:00Z,26.6493,-81.8810,2.715,1.2,1111122 
SCCF RECON,ioos:station:SCCF:53:1,2016-09-01T19:00:00Z,26.6493,-81.8810,2.778,1.08,1111122 
SCCF RECON,ioos:station:SCCF:53:1,2016-09-01T20:00:00Z,26.6493,-81.8810,2.835,1.39,1111122 
SCCF RECON,ioos:station:SCCF:53:1,2016-09-01T21:00:00Z,26.6493,-81.8810,2.878,1.47,1111122 
SCCF RECON,ioos:station:SCCF:53:1,2016-09-01T22:00:00Z,26.6493,-81.8810,2.895,1.45,1111122 
SCCF RECON,ioos:station:SCCF:53:1,2016-09-01T23:00:00Z,26.6493,-81.8810,2.829,1.24,1111122 
SCCF RECON,ioos:station:SCCF:53:1,2016-09-02T00:00:00Z,26.6493,-81.8810,2.776,1.08,1111122 
SCCF RECON,ioos:station:SCCF:53:1,2016-09-02T01:00:00Z,26.6493,-81.8810,2.713,0.89,1111122 
SCCF RECON,ioos:station:SCCF:53:1,2016-09-02T02:00:00Z,26.6493,-81.8810,2.657,0.84,1111122 
SCCF RECON,ioos:station:SCCF:53:1,2016-09-02T03:00:00Z,26.6493,-81.8810,2.633,0.75,1111122 
SCCF RECON,ioos:station:SCCF:53:1,2016-09-02T04:00:00Z,26.6493,-81.8810,2.65,0.6,1111122 
SCCF RECON,ioos:station:SCCF:53:1,2016-09-02T05:00:00Z,26.6493,-81.8810,2.704,0.58,1111122 
SCCF RECON,ioos:station:SCCF:53:1,2016-09-02T06:00:00Z,26.6493,-81.8810,2.764,0.56,1111122 
SCCF RECON,ioos:station:SCCF:53:1,2016-09-02T07:00:00Z,26.6493,-81.8810,2.812,0.7,1111122 
SCCF RECON,ioos:station:SCCF:53:1,2016-09-02T08:00:00Z,26.6493,-81.8810,2.848,0.73,1111122 
SCCF RECON,ioos:station:SCCF:53:1,2016-09-02T09:00:00Z,26.6493,-81.8810,2.883,0.62,1111122 
SCCF RECON,ioos:station:SCCF:53:1,2016-09-02T10:00:00Z,26.6493,-81.8810,2.853,0.53,1111122 
SCCF RECON,ioos:station:SCCF:53:1,2016-09-02T11:00:00Z,26.6493,-81.8810,2.797,0.77,1111122 
SCCF RECON,ioos:station:SCCF:53:1,2016-09-02T12:00:00Z,26.6493,-81.8810,2.741,0.91,1111122 
SCCF RECON,ioos:station:SCCF:53:1,2016-09-02T13:00:00Z,26.6493,-81.8810,2.692,0.81,1111122 
SCCF RECON,ioos:station:SCCF:53:1,2016-09-02T14:00:00Z,26.6493,-81.8810,2.648,0.51,1111122 
SCCF RECON,ioos:station:SCCF:53:1,2016-09-02T15:00:00Z,26.6493,-81.8810,2.62,0.36,1111122 
SCCF RECON,ioos:station:SCCF:53:1,2016-09-02T16:00:00Z,26.6493,-81.8810,2.628,0.34,1111122 
SCCF RECON,ioos:station:SCCF:53:1,2016-09-02T17:00:00Z,26.6493,-81.8810,2.725,0.27,1111122 
SCCF RECON,ioos:station:SCCF:53:1,2016-09-02T18:00:00Z,26.6493,-81.8810,2.81,0.28,1111122 
SCCF RECON,ioos:station:SCCF:53:1,2016-09-02T19:00:00Z,26.6493,-81.8810,2.79,0.32,1111122 
SCCF RECON,ioos:station:SCCF:53:1,2016-09-02T20:00:00Z,26.6493,-81.8810,2.764,0.36,1111122 
SCCF RECON,ioos:station:SCCF:53:1,2016-09-02T21:00:00Z,26.6493,-81.8810,2.724,0.34,1111122 
SCCF RECON,ioos:station:SCCF:53:1,2016-09-02T22:00:00Z,26.6493,-81.8810,2.652,0.45,1111122 
SCCF RECON,ioos:station:SCCF:53:1,2016-09-02T23:00:00Z,26.6493,-81.8810,2.597,0.37,1111122 
SCCF RECON,ioos:station:SCCF:53:1,2016-09-03T00:00:00Z,26.6493,-81.8810,2.552,0.26,1111122 
SCCF RECON,ioos:station:SCCF:53:1,2016-09-03T01:00:00Z,26.6493,-81.8810,2.502,0.23,1111122 
SCCF RECON,ioos:station:SCCF:53:1,2016-09-03T02:00:00Z,26.6493,-81.8810,2.44,0.26,1111122 
SCCF RECON,ioos:station:SCCF:53:1,2016-09-03T03:00:00Z,26.6493,-81.8810,2.38,0.31,1111122 
SCCF RECON,ioos:station:SCCF:53:1,2016-09-03T04:00:00Z,26.6493,-81.8810,2.34,0.32,1111122 
SCCF RECON,ioos:station:SCCF:53:1,2016-09-03T05:00:00Z,26.6493,-81.8810,2.33,0.3,1111122 
SCCF RECON,ioos:station:SCCF:53:1,2016-09-03T06:00:00Z,26.6493,-81.8810,2.39,0.29,1111122 
SCCF RECON,ioos:station:SCCF:53:1,2016-09-03T07:00:00Z,26.6493,-81.8810,2.46,0.31,1111122 
SCCF RECON,ioos:station:SCCF:53:1,2016-09-03T08:00:00Z,26.6493,-81.8810,2.52,0.31,1111122 
SCCF RECON,ioos:station:SCCF:53:1,2016-09-03T09:00:00Z,26.6493,-81.8810,2.55,0.64,1111122 
SCCF RECON,ioos:station:SCCF:53:1,2016-09-03T10:00:00Z,26.6493,-81.8810,2.51,0.3,1111122 
SCCF RECON,ioos:station:SCCF:53:1,2016-09-03T11:00:00Z,26.6493,-81.8810,2.442,0.29,1111122 
SCCF RECON,ioos:station:SCCF:53:1,2016-09-03T12:00:00Z,26.6493,-81.8810,2.4,0.28,1111122 
SCCF RECON,ioos:station:SCCF:53:1,2016-09-03T13:00:00Z,26.6493,-81.8810,2.35,0.3,1111122 
SCCF RECON,ioos:station:SCCF:53:1,2016-09-03T14:00:00Z,26.6493,-81.8810,2.299,0.3,1111122 
SCCF RECON,ioos:station:SCCF:53:1,2016-09-03T15:00:00Z,26.6493,-81.8810,2.251,0.25,1111122 
SCCF RECON,ioos:station:SCCF:53:1,2016-09-03T16:00:00Z,26.6493,-81.8810,2.23,0.23,1111122 
SCCF RECON,ioos:station:SCCF:53:1,2016-09-03T17:00:00Z,26.6493,-81.8810,2.294,0.22,1111122 
SCCF RECON,ioos:station:SCCF:53:1,2016-09-03T18:00:00Z,26.6493,-81.8810,2.367,0.25,1111122 
SCCF RECON,ioos:station:SCCF:53:1,2016-09-03T19:00:00Z,26.6493,-81.8810,2.427,0.26,1111122 
SCCF RECON,ioos:station:SCCF:53:1,2016-09-03T20:00:00Z,26.6493,-81.8810,2.51,0.3,1111122 
SCCF RECON,ioos:station:SCCF:53:1,2016-09-03T21:00:00Z,26.6493,-81.8810,2.56,0.37,1111122 
SCCF RECON,ioos:station:SCCF:53:1,2016-09-03T22:00:00Z,26.6493,-81.8810,2.575,0.4,1111122 
SCCF RECON,ioos:station:SCCF:53:1,2016-09-03T23:00:00Z,26.6493,-81.8810,2.539,0.36,1111122 
SCCF RECON,ioos:station:SCCF:53:1,2016-09-04T00:00:00Z,26.6493,-81.8810,2.48,0.31,1111122 
SCCF RECON,ioos:station:SCCF:53:1,2016-09-04T01:00:00Z,26.6493,-81.8810,2.43,0.24,1111122 
SCCF RECON,ioos:station:SCCF:53:1,2016-09-04T02:00:00Z,26.6493,-81.8810,2.38,0.28,1111122 
SCCF RECON,ioos:station:SCCF:53:1,2016-09-04T03:00:00Z,26.6493,-81.8810,2.33,0.21,1111122 
SCCF RECON,ioos:station:SCCF:53:1,2016-09-04T04:00:00Z,26.6493,-81.8810,2.29,0.22,1111122 
SCCF RECON,ioos:station:SCCF:53:1,2016-09-04T05:00:00Z,26.6493,-81.8810,2.29,0.2,1111122 
SCCF RECON,ioos:station:SCCF:53:1,2016-09-04T06:00:00Z,26.6493,-81.8810,2.35,0.21,1111122 
SCCF RECON,ioos:station:SCCF:53:1,2016-09-04T07:00:00Z,26.6493,-81.8810,2.41,0.21,1111122 
SCCF RECON,ioos:station:SCCF:53:1,2016-09-04T08:00:00Z,26.6493,-81.8810,2.46,0.21,1111122 
SCCF RECON,ioos:station:SCCF:53:1,2016-09-04T09:00:00Z,26.6493,-81.8810,2.51,0.24,1111122 
SCCF RECON,ioos:station:SCCF:53:1,2016-09-04T10:00:00Z,26.6493,-81.8810,2.52,0.24,1111122 
SCCF RECON,ioos:station:SCCF:53:1,2016-09-04T11:00:00Z,26.6493,-81.8810,2.48,0.24,1111122 
SCCF RECON,ioos:station:SCCF:53:1,2016-09-04T12:00:00Z,26.6493,-81.8810,2.42,0.21,1111122 
SCCF RECON,ioos:station:SCCF:53:1,2016-09-04T13:00:00Z,26.6493,-81.8810,2.37,0.2,1111122 
SCCF RECON,ioos:station:SCCF:53:1,2016-09-04T14:00:00Z,26.6493,-81.8810,2.321,0.2,1111122 
SCCF RECON,ioos:station:SCCF:53:1,2016-09-04T15:00:00Z,26.6493,-81.8810,2.273,0.21,1111122 
SCCF RECON,ioos:station:SCCF:53:1,2016-09-04T16:00:00Z,26.6493,-81.8810,2.23,0.19,1111122 
SCCF RECON,ioos:station:SCCF:53:1,2016-09-04T17:00:00Z,26.6493,-81.8810,2.207,0.19,1111122 
SCCF RECON,ioos:station:SCCF:53:1,2016-09-04T18:00:00Z,26.6493,-81.8810,2.264,0.2,1111122 
SCCF RECON,ioos:station:SCCF:53:1,2016-09-04T19:00:00Z,26.6493,-81.8810,2.329,0.2,1111122 
SCCF RECON,ioos:station:SCCF:53:1,2016-09-04T20:00:00Z,26.6493,-81.8810,2.388,0.21,1111122 
SCCF RECON,ioos:station:SCCF:53:1,2016-09-04T21:00:00Z,26.6493,-81.8810,2.46,0.21,1111122 
SCCF RECON,ioos:station:SCCF:53:1,2016-09-04T22:00:00Z,26.6493,-81.8810,2.49,0.21,1111122 
SCCF RECON,ioos:station:SCCF:53:1,2016-09-04T23:00:00Z,26.6493,-81.8810,2.48,0.21,1111122 
SCCF RECON,ioos:station:SCCF:53:1,2016-09-05T00:00:00Z,26.6493,-81.8810,2.44,0.21,1111122 
SCCF RECON,ioos:station:SCCF:53:1,2016-09-05T01:00:00Z,26.6493,-81.8810,2.389,0.2,1111122 
SCCF RECON,ioos:station:SCCF:53:1,2016-09-05T02:00:00Z,26.6493,-81.8810,2.35,0.2,1111122 
SCCF RECON,ioos:station:SCCF:53:1,2016-09-05T03:00:00Z,26.6493,-81.8810,2.3,0.2,1111122 
SCCF RECON,ioos:station:SCCF:53:1,2016-09-05T04:00:00Z,26.6493,-81.8810,2.26,0.2,1111122 
SCCF RECON,ioos:station:SCCF:53:1,2016-09-05T05:00:00Z,26.6493,-81.8810,2.231,0.2,1111122 
SCCF RECON,ioos:station:SCCF:53:1,2016-09-05T06:00:00Z,26.6493,-81.8810,2.247,0.2,1111122 
SCCF RECON,ioos:station:SCCF:53:1,2016-09-05T07:00:00Z,26.6493,-81.8810,2.313,0.2,1111122 
SCCF RECON,ioos:station:SCCF:53:1,2016-09-05T08:00:00Z,26.6493,-81.8810,2.37,0.2,1111122 
SCCF RECON,ioos:station:SCCF:53:1,2016-09-05T09:00:00Z,26.6493,-81.8810,2.434,0.2,1111122 
SCCF RECON,ioos:station:SCCF:53:1,2016-09-05T10:00:00Z,26.6493,-81.8810,2.48,0.2,1111122 
SCCF RECON,ioos:station:SCCF:53:1,2016-09-05T11:00:00Z,26.6493,-81.8810,2.48,0.2,1111122 
SCCF RECON,ioos:station:SCCF:53:1,2016-09-05T12:00:00Z,26.6493,-81.8810,2.449,0.2,1111122 
SCCF RECON,ioos:station:SCCF:53:1,2016-09-05T13:00:00Z,26.6493,-81.8810,2.39,0.2,1111122 
SCCF RECON,ioos:station:SCCF:53:1,2016-09-05T14:00:00Z,26.6493,-81.8810,2.34,0.2,1111122 
SCCF RECON,ioos:station:SCCF:53:1,2016-09-05T15:00:00Z,26.6493,-81.8810,2.282,0.2,1111122 
SCCF RECON,ioos:station:SCCF:53:1,2016-09-05T16:00:00Z,26.6493,-81.8810,2.231,0.2,1111122 
SCCF RECON,ioos:station:SCCF:53:1,2016-09-05T17:00:00Z,26.6493,-81.8810,2.192,0.2,1111122 
SCCF RECON,ioos:station:SCCF:53:1,2016-09-05T18:00:00Z,26.6493,-81.8810,2.18,0.2,1111122 
SCCF RECON,ioos:station:SCCF:53:1,2016-09-05T19:00:00Z,26.6493,-81.8810,2.249,0.2,1111122 
SCCF RECON,ioos:station:SCCF:53:1,2016-09-05T20:00:00Z,26.6493,-81.8810,2.303,0.2,1111122 
SCCF RECON,ioos:station:SCCF:53:1,2016-09-05T21:00:00Z,26.6493,-81.8810,2.374,0.2,1111122 
SCCF RECON,ioos:station:SCCF:53:1,2016-09-05T22:00:00Z,26.6493,-81.8810,2.45,0.2,1111122 
SCCF RECON,ioos:station:SCCF:53:1,2016-09-05T23:00:00Z,26.6493,-81.8810,2.531,0.21,1111122 
SCCF RECON,ioos:station:SCCF:53:1,2016-09-06T00:00:00Z,26.6493,-81.8810,2.531,0.2,1111122 
SCCF RECON,ioos:station:SCCF:53:1,2016-09-06T01:00:00Z,26.6493,-81.8810,2.49,0.2,1111122 
SCCF RECON,ioos:station:SCCF:53:1,2016-09-06T02:00:00Z,26.6493,-81.8810,2.447,0.2,1111122 
SCCF RECON,ioos:station:SCCF:53:1,2016-09-06T03:00:00Z,26.6493,-81.8810,2.4,0.19,1111122 
SCCF RECON,ioos:station:SCCF:53:1,2016-09-06T04:00:00Z,26.6493,-81.8810,2.35,0.19,1111122 
SCCF RECON,ioos:station:SCCF:53:1,2016-09-06T05:00:00Z,26.6493,-81.8810,2.31,0.19,1111122 
SCCF RECON,ioos:station:SCCF:53:1,2016-09-06T06:00:00Z,26.6493,-81.8810,2.28,0.19,1111122 
SCCF RECON,ioos:station:SCCF:53:1,2016-09-06T07:00:00Z,26.6493,-81.8810,2.32,0.19,1111122 
SCCF RECON,ioos:station:SCCF:53:1,2016-09-06T08:00:00Z,26.6493,-81.8810,2.39,0.19,1111122 
SCCF RECON,ioos:station:SCCF:53:1,2016-09-06T09:00:00Z,26.6493,-81.8810,2.454,0.19,1111122 
SCCF RECON,ioos:station:SCCF:53:1,2016-09-06T10:00:00Z,26.6493,-81.8810,2.517,0.19,1111122 
SCCF RECON,ioos:station:SCCF:53:1,2016-09-06T11:00:00Z,26.6493,-81.8810,2.55,0.19,1111122 
SCCF RECON,ioos:station:SCCF:53:1,2016-09-06T12:00:00Z,26.6493,-81.8810,2.51,0.19,1111122 
SCCF RECON,ioos:station:SCCF:53:1,2016-09-06T13:00:00Z,26.6493,-81.8810,2.46,0.19,1111122 
SCCF RECON,ioos:station:SCCF:53:1,2016-09-06T14:00:00Z,26.6493,-81.8810,2.42,0.19,1111122 
SCCF RECON,ioos:station:SCCF:53:1,2016-09-06T15:00:00Z,26.6493,-81.8810,2.38,0.19,1111122 
SCCF RECON,ioos:station:SCCF:53:1,2016-09-06T16:00:00Z,26.6493,-81.8810,2.33,0.19,1111122 
SCCF RECON,ioos:station:SCCF:53:1,2016-09-06T17:00:00Z,26.6493,-81.8810,2.288,0.17,1111122 
SCCF RECON,ioos:station:SCCF:53:1,2016-09-06T18:00:00Z,26.6493,-81.8810,2.252,0.18,1111122 
SCCF RECON,ioos:station:SCCF:53:1,2016-09-06T19:00:00Z,26.6493,-81.8810,2.27,0.18,1111122 
SCCF RECON,ioos:station:SCCF:53:1,2016-09-06T20:00:00Z,26.6493,-81.8810,2.34,0.18,1111122 
SCCF RECON,ioos:station:SCCF:53:1,2016-09-06T21:00:00Z,26.6493,-81.8810,2.41,0.18,1111122 
SCCF RECON,ioos:station:SCCF:53:1,2016-09-06T22:00:00Z,26.6493,-81.8810,2.47,0.18,1111122 
SCCF RECON,ioos:station:SCCF:53:1,2016-09-06T23:00:00Z,26.6493,-81.8810,2.5,0.18,1111122 
SCCF RECON,ioos:station:SCCF:53:1,2016-09-07T00:00:00Z,26.6493,-81.8810,2.5,0.18,1111122 
SCCF RECON,ioos:station:SCCF:53:1,2016-09-07T01:00:00Z,26.6493,-81.8810,2.46,0.18,1111122 
SCCF RECON,ioos:station:SCCF:53:1,2016-09-07T02:00:00Z,26.6493,-81.8810,2.42,0.18,1111122 
SCCF RECON,ioos:station:SCCF:53:1,2016-09-07T03:00:00Z,26.6493,-81.8810,2.382,0.18,1111122 
SCCF RECON,ioos:station:SCCF:53:1,2016-09-07T04:00:00Z,26.6493,-81.8810,2.347,0.18,1111122 
SCCF RECON,ioos:station:SCCF:53:1,2016-09-07T05:00:00Z,26.6493,-81.8810,2.31,0.18,1111122 
SCCF RECON,ioos:station:SCCF:53:1,2016-09-07T06:00:00Z,26.6493,-81.8810,2.282,0.18,1111122 
SCCF RECON,ioos:station:SCCF:53:1,2016-09-07T07:00:00Z,26.6493,-81.8810,2.31,0.18,1111122 
SCCF RECON,ioos:station:SCCF:53:1,2016-09-07T08:00:00Z,26.6493,-81.8810,2.36,0.18,1111122 
SCCF RECON,ioos:station:SCCF:53:1,2016-09-07T09:00:00Z,26.6493,-81.8810,2.42,0.18,1111122 
SCCF RECON,ioos:station:SCCF:53:1,2016-09-07T10:00:00Z,26.6493,-81.8810,2.49,0.18,1111122 
SCCF RECON,ioos:station:SCCF:53:1,2016-09-07T11:00:00Z,26.6493,-81.8810,2.52,0.18,1111122 
SCCF RECON,ioos:station:SCCF:53:1,2016-09-07T12:00:00Z,26.6493,-81.8810,2.529,0.18,1111122 
SCCF RECON,ioos:station:SCCF:53:1,2016-09-07T13:00:00Z,26.6493,-81.8810,2.498,0.18,1111122 
SCCF RECON,ioos:station:SCCF:53:1,2016-09-07T14:00:00Z,26.6493,-81.8810,2.452,0.18,1111122 
SCCF RECON,ioos:station:SCCF:53:1,2016-09-07T15:00:00Z,26.6493,-81.8810,2.406,0.18,1111122 
SCCF RECON,ioos:station:SCCF:53:1,2016-09-07T16:00:00Z,26.6493,-81.8810,2.355,0.18,1111122 
SCCF RECON,ioos:station:SCCF:53:1,2016-09-07T17:00:00Z,26.6493,-81.8810,2.308,0.18,1111122 
SCCF RECON,ioos:station:SCCF:53:1,2016-09-07T18:00:00Z,26.6493,-81.8810,2.26,0.18,1111122 
SCCF RECON,ioos:station:SCCF:53:1,2016-09-07T19:00:00Z,26.6493,-81.8810,2.238,0.18,1111122 
SCCF RECON,ioos:station:SCCF:53:1,2016-09-07T20:00:00Z,26.6493,-81.8810,2.214,0.18,1111122 
SCCF RECON,ioos:station:SCCF:53:1,2016-09-07T21:00:00Z,26.6493,-81.8810,2.269,0.18,1111122 
SCCF RECON,ioos:station:SCCF:53:1,2016-09-07T22:00:00Z,26.6493,-81.8810,2.319,0.18,1111122 
SCCF RECON,ioos:station:SCCF:53:1,2016-09-07T23:00:00Z,26.6493,-81.8810,2.36,0.18,1111122 
SCCF RECON,ioos:station:SCCF:53:1,2016-09-08T00:00:00Z,26.6493,-81.8810,2.375,0.18,1111122 
SCCF RECON,ioos:station:SCCF:53:1,2016-09-08T01:00:00Z,26.6493,-81.8810,2.37,0.18,1111122 
SCCF RECON,ioos:station:SCCF:53:1,2016-09-08T02:00:00Z,26.6493,-81.8810,2.36,0.18,1111122 
SCCF RECON,ioos:station:SCCF:53:1,2016-09-08T03:00:00Z,26.6493,-81.8810,2.33,0.18,1111122 
SCCF RECON,ioos:station:SCCF:53:1,2016-09-08T04:00:00Z,26.6493,-81.8810,2.29,0.18,1111122 
SCCF RECON,ioos:station:SCCF:53:1,2016-09-08T05:00:00Z,26.6493,-81.8810,2.261,0.18,1111122 
SCCF RECON,ioos:station:SCCF:53:1,2016-09-08T06:00:00Z,26.6493,-81.8810,2.25,0.17,1111122 
SCCF RECON,ioos:station:SCCF:53:1,2016-09-08T07:00:00Z,26.6493,-81.8810,2.26,0.17,1111122 
SCCF RECON,ioos:station:SCCF:53:1,2016-09-08T08:00:00Z,26.6493,-81.8810,2.299,0.17,1111122 
SCCF RECON,ioos:station:SCCF:53:1,2016-09-08T09:00:00Z,26.6493,-81.8810,2.35,0.18,1111122 
SCCF RECON,ioos:station:SCCF:53:1,2016-09-08T10:00:00Z,26.6493,-81.8810,2.41,0.18,1111122 
SCCF RECON,ioos:station:SCCF:53:1,2016-09-08T11:00:00Z,26.6493,-81.8810,2.46,0.18,1111122 
SCCF RECON,ioos:station:SCCF:53:1,2016-09-08T12:00:00Z,26.6493,-81.8810,2.492,0.18,1111122 
SCCF RECON,ioos:station:SCCF:53:1,2016-09-08T13:00:00Z,26.6493,-81.8810,2.478,0.18,1111122 
SCCF RECON,ioos:station:SCCF:53:1,2016-09-08T14:00:00Z,26.6493,-81.8810,2.439,0.17,1111122 
SCCF RECON,ioos:station:SCCF:53:1,2016-09-08T15:00:00Z,26.6493,-81.8810,2.389,0.17,1111122 
SCCF RECON,ioos:station:SCCF:53:1,2016-09-08T16:00:00Z,26.6493,-81.8810,2.33,0.18,1111122 
SCCF RECON,ioos:station:SCCF:53:1,2016-09-08T17:00:00Z,26.6493,-81.8810,2.273,0.18,1111122 
SCCF RECON,ioos:station:SCCF:53:1,2016-09-08T18:00:00Z,26.6493,-81.8810,2.224,0.18,1111122 
SCCF RECON,ioos:station:SCCF:53:1,2016-09-08T19:00:00Z,26.6493,-81.8810,2.177,0.17,1111122 
SCCF RECON,ioos:station:SCCF:53:1,2016-09-08T20:00:00Z,26.6493,-81.8810,2.15,0.17,1111122 
SCCF RECON,ioos:station:SCCF:53:1,2016-09-08T21:00:00Z,26.6493,-81.8810,2.16,0.17,1111122 
SCCF RECON,ioos:station:SCCF:53:1,2016-09-08T22:00:00Z,26.6493,-81.8810,2.22,0.17,1111122 
SCCF RECON,ioos:station:SCCF:53:1,2016-09-08T23:00:00Z,26.6493,-81.8810,2.27,0.17,1111122 
SCCF RECON,ioos:station:SCCF:53:1,2016-09-09T00:00:00Z,26.6493,-81.8810,2.32,0.17,1111122 
SCCF RECON,ioos:station:SCCF:53:1,2016-09-09T01:00:00Z,26.6493,-81.8810,2.36,0.18,1111122 
SCCF RECON,ioos:station:SCCF:53:1,2016-09-09T02:00:00Z,26.6493,-81.8810,2.386,0.18,1111122 
SCCF RECON,ioos:station:SCCF:53:1,2016-09-09T03:00:00Z,26.6493,-81.8810,2.4,0.18,1111122 
SCCF RECON,ioos:station:SCCF:53:1,2016-09-09T04:00:00Z,26.6493,-81.8810,2.39,0.18,1111122 
SCCF RECON,ioos:station:SCCF:53:1,2016-09-09T05:00:00Z,26.6493,-81.8810,2.378,0.18,1111122 
SCCF RECON,ioos:station:SCCF:53:1,2016-09-09T06:00:00Z,26.6493,-81.8810,2.34,0.17,1111122 
SCCF RECON,ioos:station:SCCF:53:1,2016-09-09T07:00:00Z,26.6493,-81.8810,2.32,0.17,1111122 
SCCF RECON,ioos:station:SCCF:53:1,2016-09-09T08:00:00Z,26.6493,-81.8810,2.307,0.17,1111122 
SCCF RECON,ioos:station:SCCF:53:1,2016-09-09T09:00:00Z,26.6493,-81.8810,2.322,0.17,1111122 
SCCF RECON,ioos:station:SCCF:53:1,2016-09-09T10:00:00Z,26.6493,-81.8810,2.38,0.17,1111122 
SCCF RECON,ioos:station:SCCF:53:1,2016-09-09T11:00:00Z,26.6493,-81.8810,2.436,0.18,1111122 
SCCF RECON,ioos:station:SCCF:53:1,2016-09-09T12:00:00Z,26.6493,-81.8810,2.48,0.18,1111122 
SCCF RECON,ioos:station:SCCF:53:1,2016-09-09T13:00:00Z,26.6493,-81.8810,2.5,0.18,1111122 
SCCF RECON,ioos:station:SCCF:53:1,2016-09-09T14:00:00Z,26.6493,-81.8810,2.473,0.18,1111122 
SCCF RECON,ioos:station:SCCF:53:1,2016-09-09T15:00:00Z,26.6493,-81.8810,2.43,0.18,1111122 
SCCF RECON,ioos:station:SCCF:53:1,2016-09-09T16:00:00Z,26.6493,-81.8810,2.379,0.17,1111122 
SCCF RECON,ioos:station:SCCF:53:1,2016-09-09T17:00:00Z,26.6493,-81.8810,2.321,0.17,1111122 
SCCF RECON,ioos:station:SCCF:53:1,2016-09-09T18:00:00Z,26.6493,-81.8810,2.26,0.17,1111122 
SCCF RECON,ioos:station:SCCF:53:1,2016-09-09T19:00:00Z,26.6493,-81.8810,2.201,0.17,1111122 
SCCF RECON,ioos:station:SCCF:53:1,2016-09-09T20:00:00Z,26.6493,-81.8810,2.154,0.17,1111122 
SCCF RECON,ioos:station:SCCF:53:1,2016-09-09T21:00:00Z,26.6493,-81.8810,2.13,0.17,1111122 
SCCF RECON,ioos:station:SCCF:53:1,2016-09-09T22:00:00Z,26.6493,-81.8810,2.131,0.17,1111122 
SCCF RECON,ioos:station:SCCF:53:1,2016-09-09T23:00:00Z,26.6493,-81.8810,2.184,0.17,1111122 
SCCF RECON,ioos:station:SCCF:53:1,2016-09-10T00:00:00Z,26.6493,-81.8810,2.24,0.17,1111122 
SCCF RECON,ioos:station:SCCF:53:1,2016-09-10T01:00:00Z,26.6493,-81.8810,2.29,0.17,1111122 
SCCF RECON,ioos:station:SCCF:53:1,2016-09-10T02:00:00Z,26.6493,-81.8810,2.34,0.17,1111122 
SCCF RECON,ioos:station:SCCF:53:1,2016-09-10T03:00:00Z,26.6493,-81.8810,2.37,0.17,1111122 
SCCF RECON,ioos:station:SCCF:53:1,2016-09-10T04:00:00Z,26.6493,-81.8810,2.39,0.17,1111122 
SCCF RECON,ioos:station:SCCF:53:1,2016-09-10T05:00:00Z,26.6493,-81.8810,2.38,0.17,1111122 
SCCF RECON,ioos:station:SCCF:53:1,2016-09-10T06:00:00Z,26.6493,-81.8810,2.347,0.17,1111122 
SCCF RECON,ioos:station:SCCF:53:1,2016-09-10T07:00:00Z,26.6493,-81.8810,2.31,0.17,1111122 
SCCF RECON,ioos:station:SCCF:53:1,2016-09-10T08:00:00Z,26.6493,-81.8810,2.28,0.17,1111122 
SCCF RECON,ioos:station:SCCF:53:1,2016-09-10T09:00:00Z,26.6493,-81.8810,2.27,0.17,1111122 
SCCF RECON,ioos:station:SCCF:53:1,2016-09-10T10:00:00Z,26.6493,-81.8810,2.29,0.18,1111122 
SCCF RECON,ioos:station:SCCF:53:1,2016-09-10T11:00:00Z,26.6493,-81.8810,2.35,0.17,1111122 
SCCF RECON,ioos:station:SCCF:53:1,2016-09-10T12:00:00Z,26.6493,-81.8810,2.42,0.17,1111122 
SCCF RECON,ioos:station:SCCF:53:1,2016-09-10T13:00:00Z,26.6493,-81.8810,2.47,0.18,1111122 
SCCF RECON,ioos:station:SCCF:53:1,2016-09-10T14:00:00Z,26.6493,-81.8810,2.518,0.18,1111122 
SCCF RECON,ioos:station:SCCF:53:1,2016-09-10T15:00:00Z,26.6493,-81.8810,2.534,0.18,1111122 
SCCF RECON,ioos:station:SCCF:53:1,2016-09-10T16:00:00Z,26.6493,-81.8810,2.494,0.17,1111122 
SCCF RECON,ioos:station:SCCF:53:1,2016-09-10T17:00:00Z,26.6493,-81.8810,2.427,0.17,1111122 
SCCF RECON,ioos:station:SCCF:53:1,2016-09-10T18:00:00Z,26.6493,-81.8810,2.37,0.17,1111122 
SCCF RECON,ioos:station:SCCF:53:1,2016-09-10T19:00:00Z,26.6493,-81.8810,2.31,0.17,1111122 
SCCF RECON,ioos:station:SCCF:53:1,2016-09-10T20:00:00Z,26.6493,-81.8810,2.26,0.17,1111122 
SCCF RECON,ioos:station:SCCF:53:1,2016-09-10T21:00:00Z,26.6493,-81.8810,2.21,0.17,1111122 
SCCF RECON,ioos:station:SCCF:53:1,2016-09-10T22:00:00Z,26.6493,-81.8810,2.178,0.17,1111122 
SCCF RECON,ioos:station:SCCF:53:1,2016-09-10T23:00:00Z,26.6493,-81.8810,2.183,0.17,1111122 
SCCF RECON,ioos:station:SCCF:53:1,2016-09-11T00:00:00Z,26.6493,-81.8810,2.254,0.17,1111122 
SCCF RECON,ioos:station:SCCF:53:1,2016-09-11T01:00:00Z,26.6493,-81.8810,2.304,0.17,1111122 
SCCF RECON,ioos:station:SCCF:53:1,2016-09-11T02:00:00Z,26.6493,-81.8810,2.36,0.17,1111122 
SCCF RECON,ioos:station:SCCF:53:1,2016-09-11T03:00:00Z,26.6493,-81.8810,2.41,0.17,1111122 
SCCF RECON,ioos:station:SCCF:53:1,2016-09-11T04:00:00Z,26.6493,-81.8810,2.44,0.17,1111122 
SCCF RECON,ioos:station:SCCF:53:1,2016-09-11T05:00:00Z,26.6493,-81.8810,2.46,0.17,1111122 
SCCF RECON,ioos:station:SCCF:53:1,2016-09-11T06:00:00Z,26.6493,-81.8810,2.452,0.17,1111122 
SCCF RECON,ioos:station:SCCF:53:1,2016-09-11T07:00:00Z,26.6493,-81.8810,2.42,0.17,1111122 
SCCF RECON,ioos:station:SCCF:53:1,2016-09-11T08:00:00Z,26.6493,-81.8810,2.37,0.17,1111122 
SCCF RECON,ioos:station:SCCF:53:1,2016-09-11T09:00:00Z,26.6493,-81.8810,2.36,0.17,1111122 
SCCF RECON,ioos:station:SCCF:53:1,2016-09-11T10:00:00Z,26.6493,-81.8810,2.35,0.17,1111122 
SCCF RECON,ioos:station:SCCF:53:1,2016-09-11T11:00:00Z,26.6493,-81.8810,2.37,0.17,1111122 
SCCF RECON,ioos:station:SCCF:53:1,2016-09-11T12:00:00Z,26.6493,-81.8810,2.432,0.17,1111122 
SCCF RECON,ioos:station:SCCF:53:1,2016-09-11T13:00:00Z,26.6493,-81.8810,2.49,0.17,1111122 
SCCF RECON,ioos:station:SCCF:53:1,2016-09-11T14:00:00Z,26.6493,-81.8810,2.54,0.17,1111122 
SCCF RECON,ioos:station:SCCF:53:1,2016-09-11T15:00:00Z,26.6493,-81.8810,2.574,0.17,1111122 
SCCF RECON,ioos:station:SCCF:53:1,2016-09-11T16:00:00Z,26.6493,-81.8810,2.56,0.17,1111122 
SCCF RECON,ioos:station:SCCF:53:1,2016-09-11T17:00:00Z,26.6493,-81.8810,2.498,0.17,1111122 
SCCF RECON,ioos:station:SCCF:53:1,2016-09-11T18:00:00Z,26.6493,-81.8810,2.429,0.17,1111122 
SCCF RECON,ioos:station:SCCF:53:1,2016-09-11T19:00:00Z,26.6493,-81.8810,2.364,0.17,1111122 
SCCF RECON,ioos:station:SCCF:53:1,2016-09-11T20:00:00Z,26.6493,-81.8810,2.315,0.17,1111122 